TimeMDT,TemperatureF,Dew PointF,Humidity,Sea Level PressureIn,VisibilityMPH,Wind Direction,Wind SpeedMPH,Gust SpeedMPH,PrecipitationIn,Events,Conditions,WindDirDegrees,DateUTC
12:51 AM,62.1,39.0,43,29.92,10.0,Calm,Calm,-,N/A,,Clear,0,2013-08-15 06:51:00
1:51 AM,57.9,39.9,51,29.92,10.0,Calm,Calm,-,N/A,,Clear,0,2013-08-15 07:51:00
2:51 AM,55.9,39.9,55,29.91,10.0,Calm,Calm,-,N/A,,Clear,0,2013-08-15 08:51:00
3:51 AM,52.0,39.9,63,29.93,10.0,ENE,4.6,-,N/A,,Clear,60,2013-08-15 09:51:00
4:51 AM,51.1,39.0,63,29.94,10.0,Calm,Calm,-,N/A,,Clear,0,2013-08-15 10:51:00
5:51 AM,54.0,37.0,53,29.94,10.0,Calm,Calm,-,N/A,,Clear,0,2013-08-15 11:51:00
6:51 AM,50.0,39.0,66,29.97,10.0,Calm,Calm,-,N/A,,Clear,0,2013-08-15 12:51:00
7:51 AM,53.1,39.9,61,30.00,10.0,Calm,Calm,-,N/A,,Clear,0,2013-08-15 13:51:00
8:51 AM,62.1,39.9,44,30.02,10.0,West,3.5,-,N/A,,Clear,260,2013-08-15 14:51:00
9:51 AM,69.1,34.0,27,30.00,10.0,Calm,Calm,-,N/A,,Clear,0,2013-08-15 15:51:00
10:51 AM,75.0,37.0,25,30.00,10.0,Variable,4.6,-,N/A,,Clear,0,2013-08-15 16:51:00
11:51 AM,80.1,39.9,24,29.99,10.0,North,3.5,-,N/A,,Clear,350,2013-08-15 17:51:00
12:51 PM,87.1,36.0,16,29.96,10.0,Variable,3.5,-,N/A,,Clear,0,2013-08-15 18:51:00
1:51 PM,91.0,28.9,11,29.94,10.0,Variable,4.6,-,N/A,,Clear,0,2013-08-15 19:51:00
2:51 PM,93.0,30.9,11,29.92,10.0,Variable,5.8,-,N/A,,Clear,0,2013-08-15 20:51:00
3:51 PM,95.0,23.0,8,29.91,10.0,Variable,5.8,-,N/A,,Clear,0,2013-08-15 21:51:00
4:51 PM,93.9,23.0,8,29.90,10.0,SW,4.6,-,N/A,,Clear,220,2013-08-15 22:51:00
5:51 PM,95.0,17.1,6,29.89,10.0,WSW,9.2,-,N/A,,Clear,250,2013-08-15 23:51:00
6:51 PM,93.0,16.0,6,29.89,10.0,Calm,Calm,-,N/A,,Clear,0,2013-08-16 00:51:00
7:51 PM,89.1,26.1,10,29.89,10.0,Calm,Calm,-,N/A,,Clear,0,2013-08-16 01:51:00
8:51 PM,79.0,37.9,23,29.90,10.0,SSE,4.6,-,N/A,,Clear,150,2013-08-16 02:51:00
9:51 PM,79.0,26.1,14,29.90,10.0,South,4.6,-,N/A,,Clear,190,2013-08-16 03:51:00
11:51 PM,55.0,42.1,62,29.93,10.0,WNW,3.5,-,N/A,,Clear,300,2013-08-16 05:51:00